Location: Wildlife_Club
(35.6000°N, 81.4330°W)
Time: 03:10:51
(UTC-04:00)

Vanguard 3 - Visible Passes

Search period start: 19 October 2019 00:00
Search period end: 29 October 2019 00:00
Orbit: 508 x 3262 km, 33.3° (Epoch: 18 October)

Date Brightness Start Highest point End Pass type
(mag) Time Alt. Az. Time Alt. Az. Time Alt. Az.
19 Oct 9.5 04:11:02 19° ESE 04:11:02 19° ESE 04:13:11 10° ESE visible
19 Oct 8.4 06:15:37 23° WSW 06:18:44 37° SSW 06:27:20 10° SE visible
20 Oct 8.2 05:06:02 40° SSE 05:06:02 40° SSE 05:11:51 10° ESE visible
20 Oct 9.3 07:11:57 10° WSW 07:17:04 22° SSW 07:24:34 10° SSE visible
21 Oct 10.1 03:56:29 11° ESE 03:56:29 11° ESE 03:56:37 10° ESE visible
21 Oct 8.4 06:01:04 25° SW 06:02:45 29° SSW 06:09:50 10° SE visible
22 Oct 9.0 04:51:32 24° SE 04:51:32 24° SE 04:54:55 10° SE visible
22 Oct 9.4 06:57:12 10° WSW 07:01:03 16° SSW 07:06:07 10° S visible
23 Oct 8.7 05:46:36 22° SSW 05:46:49 22° SSW 05:52:16 10° SSE visible
24 Oct 9.7 04:37:05 13° SE 04:37:05 13° SE 04:38:00 10° SE visible
24 Oct 9.5 06:43:59 10° SSW 06:45:05 10° SSW 06:46:16 10° SSW visible
24 Oct 9.6 20:41:43 10° S 20:44:24 13° SSE 20:44:24 13° SSE visible
25 Oct 9.3 05:32:10 14° S 05:32:10 14° S 05:34:29 10° SSE visible
25 Oct 9.7 21:37:23 10° SSW 21:39:28 16° SSW 21:39:28 16° SSW visible
26 Oct 9.2 20:23:06 10° SSW 20:29:06 19° SSE 20:29:56 19° SSE visible
27 Oct 9.8 19:09:49 10° S 19:14:31 14° SSE 19:18:19 10° SE visible
27 Oct 9.1 21:19:59 10° SW 21:24:57 27° SSW 21:24:57 27° SSW visible
28 Oct 9.0 20:04:58 10° SSW 20:13:04 26° SSE 20:15:21 22° SE visible
28 Oct 9.9 22:18:13 10° WSW 22:19:56 16° WSW 22:19:56 16° WSW visible
